GW4331 Weather Reports


time (UTC)temp
F
wind
direction
speed
knots
gust
knots
rain 1hr
in
rain 24hr
in
rain mn
in
humidity
%
barometer
mb
20260507134538 55 271 0.0 1.7 0.00 0.33 0.23 77 1012.5
20260507133009 55 315 0.0 0.9 0.00 0.33 0.23 80 1012.3
20260507131548 55 72 0.0 1.7 0.00 0.33 0.23 80 1012.4
20260507130016 55 267 0.0 0.9 0.00 0.34 0.23 81 1012.3
20260507124536 55 327 0.0 1.7 0.00 0.34 0.23 78 1012.3
20260507123007 54 67 0.0 0.9 0.00 0.34 0.23 84 1012.2
20260507121545 54 263 0.0 1.7 0.00 0.34 0.23 87 1011.9
20260507120014 54 272 0.0 0.0 0.00 0.34 0.23 89 1011.7
20260507114553 53 274 0.0 0.9 0.00 0.34 0.23 91 1011.8
20260507113024 53 260 0.0 0.9 0.00 0.34 0.23 92 1011.5
20260507111547 53 227 0.0 0.0 0.01 0.34 0.23 92 1011.6
20260507110104 53 228 0.0 0.9 0.01 0.34 0.23 93 1011.3
20260507104536 52 303 0.0 0.9 0.02 0.34 0.23 92 1011.6
20260507103050 53 303 0.0 0.0 0.02 0.34 0.23 91 1011.4
20260507101524 53 295 0.0 0.0 0.01 0.33 0.22 91 1011.0
20260507100050 53 295 0.0 0.0 0.01 0.33 0.22 91 1011.1
20260507094521 53 295 0.0 0.0 0.00 0.32 0.21 92 1011.2
20260507093041 53 296 0.0 0.9 0.00 0.32 0.21 92 1011.1
20260507091528 53 274 0.0 0.9 0.00 0.32 0.21 92 1010.9
20260507090058 54 274 0.0 0.0 0.00 0.32 0.21 92 1010.8
20260507084556 54 274 0.0 0.9 0.00 0.32 0.21 91 1010.6
20260507083025 54 269 0.0 0.9 0.00 0.32 0.21 91 1010.7
20260507081550 54 44 0.0 0.9 0.00 0.32 0.21 92 1010.9
20260507080006 55 68 0.0 0.0 0.00 0.32 0.21 93 1010.6
20260507074539 55 65 0.0 0.9 0.00 0.32 0.21 93 1010.2
20260507073100 55 45 0.0 0.9 0.00 0.32 0.21 93 1010.1
20260507071518 55 315 0.0 0.9 0.00 0.32 0.21 93 1010.1
20260507070134 55 67 0.0 0.9 0.00 0.32 0.21 93 1010.2
20260507064509 55 101 0.0 1.7 0.00 0.32 0.21 93 1009.9
20260507063038 55 53 0.0 1.7 0.01 0.32 0.21 92 1010.1
20260507061552 56 7 0.0 4.3 0.02 0.32 0.21 92 1010.0
20260507060026 56 13 0.0 3.5 0.03 0.32 0.21 93 1009.4
20260507054554 57 338 0.0 1.7 0.03 0.32 0.21 93 1008.7
20260507053015 58 159 0.0 0.0 0.05 0.31 0.20 93 1009.2
20260507051543 58 159 0.0 0.9 0.17 0.30 0.19 92 1010.1
20260507044540 59 78 0.0 1.7 0.18 0.28 0.18 91 1009.7
20260507043056 61 333 0.9 4.3 0.16 0.27 0.16 89 1009.6
20260507041523 63 189 0.0 2.6 0.01 0.12 0.01 86 1009.7
20260507040052 64 123 0.0 0.0 0.00 0.11 0.00 84 1009.2
20260507034501 65 178 0.0 1.7 0.00 0.11 0.11 85 1009.1
20260507033031 65 302 0.0 0.9 0.00 0.11 0.11 87 1009.0
20260507031548 65 120 0.0 0.0 0.00 0.11 0.11 87 1008.9
20260507030016 64 120 0.0 0.0 0.00 0.11 0.11 88 1008.8
20260507024550 64 185 0.0 0.0 0.00 0.11 0.11 89 1009.0
20260507023019 64 185 0.0 0.0 0.00 0.11 0.11 89 1008.7
20260507021537 64 185 0.0 0.0 0.00 0.11 0.11 88 1008.2
20260507020005 64 186 0.0 0.0 0.00 0.11 0.11 88 1008.5
20260507014541 64 186 0.0 0.0 0.00 0.11 0.11 87 1008.5
20260507013054 65 185 0.0 0.0 0.00 0.11 0.11 86 1008.6
20260507011526 65 185 0.0 0.0 0.00 0.11 0.11 87 1008.8
20260507004501 66 185 0.0 0.0 0.00 0.11 0.11 84 1008.4
20260507003032 66 185 0.0 0.0 0.00 0.11 0.11 82 1008.2
20260507001552 67 185 0.0 0.9 0.00 0.11 0.11 81 1008.1
20260507000016 68 160 0.0 0.9 0.00 0.11 0.11 80 1008.1
20260506234549 69 168 0.0 0.0 0.00 0.11 0.11 78 1007.9
20260506233001 69 159 0.0 0.9 0.00 0.11 0.11 77 1007.7
20260506231533 69 201 0.0 1.7 0.00 0.11 0.11 76 1007.8
20260506230106 70 153 0.0 0.9 0.00 0.11 0.11 76 1007.7
20260506224518 70 207 0.0 1.7 0.00 0.11 0.11 76 1007.6
20260506223047 70 165 0.9 3.5 0.00 0.11 0.11 74 1007.6
20260506221511 71 175 0.0 3.5 0.00 0.11 0.11 74 1007.5
20260506220044 70 157 0.0 1.7 0.00 0.11 0.11 75 1007.5
20260506214557 70 190 0.0 3.5 0.00 0.11 0.11 74 1007.5
20260506213024 70 169 0.0 2.6 0.00 0.11 0.11 75 1007.8
20260506211557 70 147 0.9 3.5 0.00 0.11 0.11 75 1007.4
20260506210024 69 160 0.9 4.3 0.00 0.11 0.11 75 1007.6
20260506204541 69 41 0.9 2.6 0.00 0.11 0.11 75 1007.4
20260506203010 69 206 0.0 2.6 0.00 0.11 0.11 76 1007.3
20260506201600 69 198 0.9 5.2 0.00 0.11 0.11 77 1007.5
20260506200059 68 150 1.7 3.5 0.00 0.11 0.11 77 1007.2
20260506194522 67 127 0.9 3.5 0.00 0.11 0.11 80 1007.6
20260506193044 67 164 0.0 5.2 0.00 0.11 0.11 80 1007.8
20260506191510 67 117 0.9 4.3 0.00 0.11 0.11 79 1008.1
20260506190043 67 215 0.0 6.1 0.00 0.11 0.11 80 1008.3
20260506184516 67 200 0.0 2.6 0.00 0.11 0.11 79 1008.8
20260506183048 66 154 0.0 4.3 0.00 0.11 0.11 80 1008.4
20260506181518 66 159 0.0 3.5 0.00 0.11 0.11 80 1008.4
20260506180049 66 141 0.0 4.3 0.00 0.11 0.11 80 1008.4
20260506174519 66 117 0.0 2.6 0.00 0.11 0.11 81 1008.8
20260506173115 65 133 0.9 4.3 0.00 0.11 0.11 81 1008.8
20260506171535 65 149 0.0 5.2 0.00 0.11 0.11 82 1009.0
20260506170048 65 150 0.9 4.3 0.00 0.11 0.11 81 1009.0
20260506164517 65 218 0.9 5.2 0.00 0.11 0.11 82 1009.0
20260506163102 64 207 0.9 2.6 0.00 0.11 0.11 85 1009.2
20260506161521 63 135 0.9 3.5 0.00 0.11 0.11 88 1009.5
20260506160039 62 144 0.9 5.2 0.00 0.11 0.11 87 1009.5
20260506154511 62 198 0.9 3.5 0.01 0.11 0.11 88 1009.4
20260506153047 62 152 0.9 2.6 0.02 0.11 0.11 90 1009.5
20260506151515 62 181 0.0 2.6 0.06 0.11 0.11 91 1009.5
20260506150048 61 198 0.0 3.5 0.07 0.11 0.11 91 1009.5
20260506144604 60 179 0.0 1.7 0.06 0.10 0.10 91 1009.8
20260506143038 61 212 0.0 5.2 0.07 0.09 0.09 88 1010.1
20260506141511 61 181 0.0 1.7 0.04 0.05 0.05 88 1009.9
20260506140055 61 143 0.0 0.9 0.03 0.04 0.04 88 1009.8